Location: Chavannes
(47.1090°N, 0.2226°W)
Time: 14:11:31
(UTC+00:00)

Cosmos 2084 Rocket - Pass Details

Date: 16 October 2021
Orbit: 508 x 671 km, 62.8° (Epoch: 02 December)

Event Time Altitude Azimuth Distance (km) Brightness Sun altitude
Rises 17:56:37 0° 225° (SW) 2,607 7.6 -8.4°
Reaches altitude 10° 17:58:47 10° 228° (SW) 1,721 6.7 -8.8°
Maximum altitude 18:02:36 70° 313° (NW) 548 3.5 -9.5°
Drops below altitude 10° 18:06:30 10° 37° (NE) 1,753 5.5 -10.1°
Enters shadow 18:07:39 - 39° (NE) 2,224 6.0 -10.3°
